Price, UT

5:26 AM MDT on June 28, 2017 (GMT -0600)
Carbon County

Weather History for KPUC - February, 2013

Change the Weather History Date:

Friday, February 22, 2013

  Actual Average Record
Temperature  
Mean Temperature 28 °F -  
Max Temperature 34 °F 38 °F 58 °F (1972)
Min Temperature 23 °F 21 °F 6 °F (1975)
Degree Days  
Heating Degree Days 36    
Moisture  
Dew Point 9 °F    
Average Humidity 46    
Maximum Humidity 60    
Minimum Humidity 35    
Precipitation  
Precipitation 0.00 in - - ()
Sea Level Pressure  
Sea Level Pressure 30.09 in    
Wind  
Wind Speed 13 mph (NW)    
Max Wind Speed 18 mph    
Max Gust Speed 25 mph    
Visibility 10 miles    
Events      
Averages and records for this station are not official NWS values.
T = Trace of Precipitation, MM = Missing Value Source: NWS Daily Summary

Daily Weather History Graph

Daily Weather History Graph

Search for Another Location

Airport or City:

Trip Planner

Search our weather history database for the weather conditions in past years. The results will help you decide how hot, cold, wet, or windy it might be!

Date:

Astronomy

Feb. 22, 2013 Rise Set
Actual Time 7:05 AM MST 6:07 PM MST
Civil Twilight 6:38 AM MST 6:35 PM MST
Nautical Twilight 6:07 AM MST 7:06 PM MST
Astronomical Twilight 5:35 AM MST 7:37 PM MST
Moon 3:23 PM MST (2/22) 4:52 AM MST (2/22)
Length of Visible Light 11h 56m
Length of Day
11h 02m
Waxing Gibbous, 90% of the Moon is Illuminated
Feb 22
Waxing Gibbous
Feb 25
Full
Mar 4
Last Quarter
Mar 11
New
Mar 19
First Quarter

Hourly Weather History & Observations

Time (MST) Temp. Windchill Dew Point Humidity Pressure Visibility Wind Dir Wind Speed Gust Speed Precip Events Conditions
12:53 AM 24.1 °F 12.5 °F 8.1 °F 51% 30.01 in 10.0 mi NW 12.7 mph 20.7 mph N/A   Clear
1:53 AM 24.1 °F 12.5 °F 8.1 °F 51% 30.01 in 10.0 mi NW 12.7 mph 19.6 mph N/A   Clear
2:53 AM 23.0 °F 11.7 °F 7.0 °F 50% 30.00 in 10.0 mi NW 11.5 mph - N/A   Clear
3:53 AM 24.1 °F 10.6 °F 6.1 °F 46% 30.01 in 10.0 mi NNW 17.3 mph 20.7 mph N/A   Clear
4:53 AM 24.1 °F 12.5 °F 7.0 °F 48% 30.01 in 10.0 mi NW 12.7 mph - N/A   Mostly Cloudy
5:53 AM 25.0 °F 12.6 °F 8.1 °F 49% 30.04 in 10.0 mi NW 15.0 mph 21.9 mph N/A   Overcast
6:53 AM 24.1 °F 10.6 °F 9.0 °F 53% 30.06 in 10.0 mi NNW 17.3 mph 23.0 mph N/A   Mostly Cloudy
7:53 AM 24.1 °F 11.0 °F 8.1 °F 51% 30.08 in 10.0 mi NNW 16.1 mph 24.2 mph N/A   Clear
8:53 AM 27.0 °F 15.2 °F 9.0 °F 47% 30.07 in 10.0 mi NNW 15.0 mph - N/A   Clear
9:53 AM 28.9 °F 18.2 °F 10.0 °F 45% 30.11 in 10.0 mi NNW 13.8 mph 20.7 mph N/A   Clear
10:53 AM 30.9 °F 20.7 °F 8.1 °F 38% 30.12 in 10.0 mi NW 13.8 mph 25.3 mph N/A   Clear
11:53 AM 33.1 °F 23.4 °F 8.1 °F 35% 30.10 in 10.0 mi WNW 13.8 mph 19.6 mph N/A   Clear
12:53 PM 34.0 °F 23.0 °F 9.0 °F 35% 30.09 in 10.0 mi WNW 18.4 mph 24.2 mph N/A   Mostly Cloudy
1:53 PM 34.0 °F 24.6 °F 9.0 °F 35% 30.09 in 10.0 mi NW 13.8 mph 20.7 mph N/A   Mostly Cloudy
2:53 PM 33.1 °F 23.0 °F 8.1 °F 35% 30.10 in 10.0 mi NW 15.0 mph 23.0 mph N/A   Scattered Clouds
3:53 PM 33.1 °F 23.4 °F 9.0 °F 37% 30.09 in 10.0 mi WNW 13.8 mph 20.7 mph N/A   Clear
4:53 PM 32.0 °F 21.6 °F 9.0 °F 38% 30.11 in 10.0 mi NW 15.0 mph 25.3 mph N/A   Clear
5:53 PM 30.0 °F 22.4 °F 9.0 °F 41% 30.13 in 10.0 mi NW 8.1 mph - N/A   Clear
6:53 PM 28.0 °F 18.1 °F 10.9 °F 49% 30.15 in 10.0 mi NNW 11.5 mph - N/A   Clear
7:53 PM 26.1 °F 21.9 °F 10.9 °F 53% 30.17 in 10.0 mi NNW 3.5 mph - N/A   Mostly Cloudy
8:53 PM 27.0 °F 17.3 °F 10.9 °F 51% 30.16 in 10.0 mi NW 10.4 mph 17.3 mph N/A   Clear
9:53 PM 27.0 °F 18.0 °F 10.9 °F 51% 30.15 in 10.0 mi West 9.2 mph - N/A   Clear
10:53 PM 25.0 °F 19.3 °F 10.0 °F 53% 30.13 in 10.0 mi WNW 4.6 mph - N/A   Clear
11:53 PM 23.0 °F 17.0 °F 10.9 °F 60% 30.12 in 10.0 mi SSW 4.6 mph - N/A   Clear